Simultaneous Nadir Overpasses (SNOs) Predictions

Prediction of SNOs between GOES-14 and NPP Satellite Orbit:

Table of predicted SNOs for the next 14.0 days since TLE Epoch: 4/16/2022
Index Date Time (GOES-14) GOES-14 Lat,Lon NPP Lat,Lon Distance(km) Time Diff (sec)
1 04/16/2022 08:07:56 0.13,-104.49 -0.76,-100.46 458.97 80
2 04/17/2022 20:29:52 -0.12,-104.51 -0.39,-105.77 143.38 80
3 04/18/2022 20:08:27 -0.13,-104.50 0.60,-101.23 372.28 80
4 04/20/2022 08:30:14 0.11,-104.46 0.56,-106.50 231.74 80
5 04/21/2022 08:14:08 0.12,-104.47 -0.43,-101.96 285.51 80
6 04/22/2022 20:36:05 -0.11,-104.51 -0.71,-107.27 314.38 80
7 04/23/2022 20:14:39 -0.12,-104.50 0.28,-102.74 201.26 80
8 04/25/2022 08:36:25 0.11,-104.44 0.93,-107.99 405.69 80
9 04/26/2022 08:20:21 0.12,-104.45 -0.13,-103.47 112.01 80
10 04/27/2022 20:42:16 -0.10,-104.52 -1.07,-108.77 484.01 80
11 04/28/2022 20:20:51 -0.11,-104.52 -0.07,-104.23 32.27 80
